[[{"header":{"parameterUnit":"m.s-1","parameterCategory":1,"la1":30.2991,"la2":30.254,"lo1":-89.0895,"lo2":-89.0444,"dy":0.0017,"dx":0.0017,"nx":28,"ny":28,"refTime":"2024-02-07T03:00:00:Z","depth":0,"parameterNumber":2,"parameterNumberName":"U-component_of_WINDS"},"data":[0,0,0,0,0,0,0,0,0,0,0,0,0,0,0,0,0,0,0,0,0,0,0,0,0,0,0,0,0,0,0,0,0,0,0,0,0,0,0,0,0,0,0,0,0,0,0,0,0,0,0,0,0,0,0,0,0,0,-4.1692,-4.1693,0,-4.1805,-4.1807,-4.1808,-4.1774,-4.1772,-4.1769,-4.1767,-4.1886,-4.1891,-4.1896,0,0,0,0,0,0,0,0,0,0,0,0,0,-4.1451,-4.1455,-4.1692,-4.1693,-4.1695,-4.1805,-4.1807,-4.1808,-4.1775,-4.1772,-4.1769,-4.1766,-4.1884,-4.1891,-4.1897,0,0,0,0,0,0,0,0,0,0,0,0,0,-4.1559,-4.1457,-4.1692,-4.1691,-4.1692,-4.1805,-4.1807,-4.1809,-4.1775,-4.1772,-4.1768,-4.1765,-4.1882,-4.189,-4.1898,-4.2019,0,0,-4.1922,-4.1926,0,0,0,0,0,0,0,0,-4.1553,-4.1568,-4.169,-4.1691,-4.1693,-4.1772,-4.1765,-4.1879,-4.1776,-4.1744,-4.1767,-4.1763,-4.1851,-4.1861,-4.1891,-4.2024,-4.2029,-4.1923,-4.1928,-4.1932,-4.1934,0,0,0,0,0,0,0,-4.1546,-4.1563,-4.1737,-4.1692,-4.1694,-4.1687,-4.1698,-4.1787,-4.1816,-4.1746,-4.1744,-4.1758,-4.1851,-4.1883,-4.1893,-4.2031,-4.1923,-4.193,-4.1935,-4.1938,-4.2273,-4.2277,0,0,0,0,0,0,-4.1537,-4.1557,-4.1733,-4.174,-4.1613,-4.1694,-4.1707,-4.175,-4.1815,-4.1821,-4.1761,-4.1756,-4.1871,-4.1884,-4.1897,-4.2044,-4.1931,-4.1939,-4.1944,-4.2269,-4.2274,-4.2278,0,0,0,0,0,0,-4.1531,-4.1553,-4.1729,-4.1648,-4.167,-4.1702,-4.1751,-4.1754,-4.1786,-4.1826,-4.1831,-4.1787,-4.1869,-4.1886,-4.1989,-4.2048,-4.1943,-4.195,-4.2264,-4.227,-4.2276,-4.2338,0,0,0,0,0,0,-4.1525,-4.1551,-4.1596,-4.1649,-4.1674,-4.1817,-4.1755,-4.1759,-4.18,-4.1794,-4.1852,-4.1859,-4.1867,-4.1977,-4.1997,-4.2057,-4.1956,-4.2259,-4.2267,-4.2274,-4.2331,-4.2346,-4.2358,0,0,0,0,0,-4.1516,-4.1609,-4.1598,-4.162,-4.1731,-4.1821,-4.1835,-4.1842,-4.1804,-4.1851,-4.1877,-4.1857,-4.2039,-4.1988,-4.201,-4.2073,-4.2255,-4.2265,-4.2273,-4.2325,-4.2343,-4.2358,0,0,0,0,0,0,-4.1561,-4.1616,-4.1604,-4.1717,-4.1765,-4.1815,-4.1873,-4.1861,-4.1921,-4.1913,-4.1921,-4.1934,-4.2041,-4.2068,-4.201,-4.2195,-4.2142,-4.2155,-4.2173,-4.2191,-4.2204,-4.2195,-4.1963,0,0,0,0,0,-4.1584,-4.1652,-4.1696,-4.1791,-4.1816,-4.1841,-4.188,-4.1882,-4.1932,-4.1952,-4.1985,-4.2036,-4.2104,-4.2149,-4.2214,-4.2336,-4.2349,-4.239,-4.2404,-4.2415,-4.2426,-4.2495,-4.2514,-4.2308,-4.2308,-4.2308,0,0,-4.1633,-4.1671,-4.1712,-4.1801,-4.1838,-4.1909,-4.1858,-4.1934,-4.1988,-4.1964,-4.2063,-4.209,-4.2147,-4.226,-4.2312,-4.2286,-4.2487,-4.2427,-4.2435,-4.2441,-4.2506,-4.2526,-4.2543,-4.2314,-4.2313,-4.2312,0,0,-4.1756,-4.1792,-4.1875,-4.1914,-4.1971,-4.1988,-4.2008,-4.2061,-4.2078,-4.2178,-4.2162,-4.2227,-4.2344,-4.2386,-4.2423,-4.2567,-4.2551,-4.2588,-4.2658,-4.2725,-4.2741,-4.2755,-4.2808,-4.2826,-4.26,-4.26,-4.26,0,-4.1809,-4.1914,-4.192,-4.1999,-4.2039,-4.2022,-4.2108,-4.2145,-4.2221,-4.225,-4.222,-4.2369,-4.2406,-4.253,-4.2565,-4.2595,-4.262,-4.258,-4.2738,-4.2753,-4.2766,-4.2816,-4.2835,-4.2604,-4.2604,-4.2603,-4.2603,0,-4.1977,-4.205,-4.2111,-4.2185,-4.2232,-4.2314,-4.2335,-4.2383,-4.2382,-4.2402,-4.2506,-4.255,-4.2625,-4.2655,-4.2654,-4.278,-4.2762,-4.2736,-4.2681,-4.279,-4.2837,-4.2856,-4.261,-4.2609,-4.2607,-4.2606,0,0,-4.2129,-4.2207,-4.2229,-4.2263,-4.2327,-4.2384,-4.2467,-4.254,-4.2582,-4.2636,-4.2706,-4.2808,-4.2784,-4.2826,-4.2831,-4.2889,-4.3002,-4.2855,-4.2857,-4.2881,-4.3145,-4.3164,-4.3185,-4.2993,-4.2996,-4.2999,-4.314,0,-4.2258,-4.2402,-4.2412,-4.2542,-4.2611,-4.2598,-4.267,-4.2718,-4.274,-4.2804,-4.2829,-4.2901,-4.2864,-4.289,-4.2947,-4.2976,-4.3055,-4.2966,-4.3059,-4.3063,-4.3044,-4.321,-4.323,-4.336,-4.3158,-4.3161,-4.3163,0,-4.2427,-4.2486,-4.2624,-4.2679,-4.2709,-4.2773,-4.2842,-4.2903,-4.2958,-4.2971,-4.3019,-4.3016,-4.3104,-4.3048,-4.3169,-4.3109,-4.3148,-4.3169,-4.3174,-4.3182,-4.3119,-4.3222,-4.3402,-4.3421,-4.3192,-4.319,-4.3188,0,-4.2524,-4.2639,-4.2736,-4.2766,-4.2834,-4.288,-4.291,-4.2962,-4.3006,-4.3068,-4.3097,-4.3168,-4.3206,-4.3262,-4.328,-4.3238,-4.3402,-4.3347,-4.3415,-4.3415,-4.3449,-4.3446,-4.3637,-4.3476,-4.3475,-4.3475,-4.3475,0,-4.2667,-4.2752,-4.2781,-4.2841,-4.2937,-4.2949,-4.3044,-4.3072,-4.3119,-4.3186,-4.3179,-4.3242,-4.3262,-4.3329,-4.3344,-4.3443,-4.3461,-4.3474,-4.3477,-4.3474,-4.3473,-4.3499,-4.349,-4.348,-4.3479,-4.3478,-4.3477,0,-4.2791,-4.2814,-4.292,-4.2976,-4.2992,-4.306,-4.3109,-4.3168,-4.319,-4.3275,-4.3296,-4.3332,-4.3411,-4.3435,-4.353,-4.354,-4.3656,-4.3651,-4.3637,-4.3637,-4.3704,-4.3698,-4.3918,-4.3948,-4.3767,-4.3769,-4.3771,0,-4.2879,-4.2944,-4.3008,-4.3052,-4.3084,-4.3155,-4.3201,-4.3217,-4.3265,-4.3334,-4.3385,-4.3464,-4.3527,-4.3654,-4.369,-4.3764,-4.376,-4.3832,-4.3771,-4.3767,-4.3761,-4.3757,-4.3764,-4.3843,-4.3845,-4.3847,-4.3848,0,-4.3035,-4.3044,-4.3109,-4.3179,-4.3233,-4.329,-4.3344,-4.3381,-4.3405,-4.346,-4.354,-4.3589,-4.3688,-4.3766,-4.3841,-4.3875,-4.3866,-4.3867,-4.3887,-4.3885,-4.3874,-4.3881,-4.3668,-4.3862,-4.386,-4.3859,-4.3859,-4.3858,-4.3144,-4.3202,-4.3256,-4.333,-4.3372,-4.3424,-4.3482,-4.3513,-4.358,-4.3661,-4.3667,-4.3755,-4.3812,-4.3912,-4.395,-4.402,-4.3999,-4.4028,-4.4035,-4.4042,-4.4047,-4.3864,-4.4034,-4.4034,-4.4033,-4.4033,-4.4033,0,-4.3299,-4.3334,-4.3401,-4.3478,-4.3536,-4.3524,-4.3584,-4.3634,-4.3711,-4.3765,-4.3828,-4.3922,-4.3999,-4.4042,-4.4119,-4.4167,-4.4165,-4.4187,-4.4183,-4.4191,-4.4061,-4.4036,-4.4187,-4.4187,-4.4187,-4.4187,-4.4187,-4.4187,-4.3386,-4.3484,-4.35,-4.362,-4.3655,-4.374,-4.3776,-4.3825,-4.3867,-4.3973,-4.4036,-4.4064,-4.4114,-4.4195,-4.4266,-4.4277,-4.4306,-4.433,-4.4338,-4.4216,-4.42,-4.4185,-4.4162,-4.4336,-4.4336,-4.4463,-4.4464,-4.4465]},{"header":{"parameterUnit":"m.s-1","parameterCategory":1,"la1":30.2991,"la2":30.254,"lo1":-89.0895,"lo2":-89.0444,"dy":0.0017,"dx":0.0017,"nx":28,"ny":28,"refTime":"2024-02-07T03:00:00:Z","depth":0,"parameterNumber":3,"parameterNumberName":"V-component_of_WINDS"},"data":[0,0,0,0,0,0,0,0,0,0,0,0,0,0,0,0,0,0,0,0,0,0,0,0,0,0,0,0,0,0,0,0,0,0,0,0,0,0,0,0,0,0,0,0,0,0,0,0,0,0,0,0,0,0,0,0,0,0,2.7684,2.7685,0,2.7731,2.7732,2.7732,2.7733,2.7732,2.7732,2.7731,2.7777,2.7779,2.7781,0,0,0,0,0,0,0,0,0,0,0,0,0,2.7596,2.7597,2.7684,2.7685,2.7686,2.7731,2.7732,2.7732,2.7733,2.7732,2.7732,2.7731,2.7777,2.7779,2.7781,0,0,0,0,0,0,0,0,0,0,0,0,0,2.7637,2.7598,2.7684,2.7691,2.7693,2.7731,2.7732,2.7733,2.7733,2.7732,2.7732,2.7731,2.7776,2.7779,2.7781,2.7815,0,0,2.7789,2.779,0,0,0,0,0,0,0,0,2.7635,2.7641,2.769,2.7691,2.7692,2.7725,2.7717,2.776,2.7734,2.7718,2.7731,2.773,2.7761,2.7764,2.7775,2.7817,2.7819,2.779,2.7791,2.7792,2.7793,0,0,0,0,0,0,0,2.7632,2.7639,2.7703,2.7691,2.7692,2.7692,2.7697,2.7725,2.7743,2.7719,2.7719,2.7725,2.7761,2.7773,2.7776,2.782,2.7789,2.7792,2.7793,2.7795,2.7895,2.7896,0,0,0,0,0,0,2.7628,2.7636,2.7701,2.7704,2.7661,2.7695,2.77,2.7716,2.7743,2.7747,2.7726,2.7725,2.7768,2.7773,2.7778,2.7821,2.7792,2.7795,2.7796,2.7894,2.7895,2.7896,0,0,0,0,0,0,2.7626,2.7634,2.7699,2.767,2.7679,2.7697,2.7714,2.7717,2.7729,2.7748,2.7751,2.7734,2.7768,2.7774,2.7807,2.7823,2.7796,2.7798,2.7893,2.7894,2.7896,2.7907,0,0,0,0,0,0,2.7623,2.7633,2.7646,2.7671,2.768,2.7727,2.7715,2.7719,2.7733,2.7733,2.7757,2.776,2.7768,2.7803,2.7809,2.7826,2.78,2.7891,2.7893,2.7895,2.7905,2.7909,2.7912,0,0,0,0,0,2.762,2.7646,2.7646,2.7654,2.7697,2.7728,2.7734,2.7743,2.7735,2.7748,2.7761,2.7759,2.782,2.7806,2.7813,2.7831,2.789,2.7893,2.7895,2.7904,2.7908,2.7912,0,0,0,0,0,0,2.7621,2.7649,2.765,2.7685,2.7704,2.7728,2.7745,2.7747,2.7768,2.7767,2.7776,2.7782,2.7815,2.7826,2.781,2.7867,2.7854,2.7858,2.7858,2.7862,2.7866,2.7863,2.7803,0,0,0,0,0,2.7626,2.7649,2.7672,2.7701,2.7711,2.7727,2.774,2.7746,2.7766,2.7774,2.779,2.7809,2.7833,2.7848,2.7871,2.7907,2.7913,2.7923,2.7926,2.7929,2.7932,2.7955,2.796,2.7904,2.7904,2.7904,0,0,2.7635,2.7653,2.7667,2.7702,2.7717,2.7742,2.7733,2.7759,2.7777,2.7778,2.781,2.7823,2.7845,2.788,2.7896,2.7891,2.7949,2.7932,2.7934,2.7936,2.7958,2.7963,2.7968,2.7906,2.7906,2.7905,0,0,2.7664,2.768,2.7706,2.7723,2.7748,2.7759,2.7765,2.779,2.7798,2.7831,2.7833,2.7855,2.7895,2.7912,2.7925,2.7964,2.7964,2.7971,2.7988,2.801,2.8014,2.8018,2.8034,2.8039,2.7975,2.7975,2.7975,0,2.7672,2.7709,2.7719,2.7746,2.7762,2.7765,2.7793,2.7808,2.7839,2.785,2.7843,2.7896,2.7911,2.7951,2.7961,2.7971,2.798,2.7969,2.8013,2.8017,2.8021,2.8036,2.8042,2.7975,2.7975,2.7975,2.7975,0,2.7719,2.7745,2.7763,2.7795,2.7813,2.7839,2.7854,2.7871,2.7876,2.7887,2.7922,2.7941,2.7969,2.7978,2.7982,2.802,2.8016,2.8011,2.7999,2.8027,2.8041,2.8047,2.7977,2.7976,2.7976,2.7976,0,0,2.7749,2.7787,2.7794,2.781,2.7838,2.7859,2.7886,2.7915,2.793,2.7951,2.7976,2.8011,2.8007,2.8023,2.8029,2.8048,2.808,2.8041,2.8042,2.8049,2.8125,2.8129,2.8136,2.808,2.8081,2.8082,2.8124,0,2.7782,2.7832,2.7844,2.7887,2.7912,2.7917,2.7942,2.7962,2.7974,2.7998,2.8011,2.8036,2.8029,2.8039,2.8058,2.8072,2.8096,2.8069,2.8103,2.8105,2.8099,2.8143,2.8147,2.8185,2.8129,2.813,2.8131,0,2.7828,2.7852,2.7899,2.7927,2.7938,2.7959,2.7988,2.801,2.8034,2.8042,2.8061,2.8065,2.8095,2.8082,2.8124,2.8105,2.812,2.813,2.8131,2.8136,2.812,2.8149,2.8197,2.8204,2.8139,2.8139,2.8138,0,2.7847,2.7892,2.7926,2.7939,2.7971,2.7987,2.8002,2.8025,2.8042,2.8067,2.8078,2.8105,2.8121,2.8142,2.8154,2.8143,2.8196,2.8183,2.8204,2.8204,2.8215,2.8214,2.8268,2.8223,2.8223,2.8223,2.8223,0,2.7884,2.7912,2.7935,2.7956,2.7989,2.8002,2.8034,2.8048,2.807,2.8094,2.8099,2.8122,2.8136,2.8161,2.8171,2.8206,2.8212,2.8219,2.8222,2.822,2.8219,2.823,2.8228,2.8224,2.8224,2.8224,2.8223,0,2.7911,2.7927,2.7965,2.7994,2.8002,2.8025,2.805,2.8071,2.8084,2.8115,2.8123,2.8144,2.8174,2.8188,2.8225,2.8232,2.8271,2.8271,2.8264,2.8265,2.8286,2.8284,2.8348,2.8358,2.8306,2.8307,2.8307,0,2.7934,2.7956,2.7989,2.8006,2.8021,2.8049,2.8067,2.8081,2.81,2.8131,2.8149,2.8179,2.8204,2.8252,2.827,2.8299,2.83,2.8321,2.8304,2.8302,2.8302,2.8301,2.8305,2.8324,2.8324,2.8325,2.8325,0,2.7974,2.7981,2.8008,2.8038,2.806,2.8084,2.8108,2.8122,2.814,2.8161,2.8193,2.8212,2.8251,2.8282,2.8312,2.8327,2.833,2.833,2.8337,2.8335,2.8331,2.8335,2.8273,2.8329,2.8328,2.8328,2.8328,2.8328,2.8,2.8022,2.8048,2.8079,2.8098,2.8121,2.8143,2.816,2.8187,2.822,2.8227,2.8261,2.8286,2.8328,2.8344,2.8371,2.8366,2.8375,2.8378,2.838,2.8382,2.8326,2.8376,2.8376,2.8376,2.8376,2.8376,0,2.8042,2.806,2.8087,2.8122,2.8146,2.8147,2.8174,2.8194,2.8224,2.8248,2.8274,2.8311,2.8342,2.8363,2.8394,2.8412,2.8414,2.842,2.8419,2.8423,2.8384,2.8376,2.8418,2.8418,2.8418,2.8418,2.8418,2.8418,2.8066,2.8103,2.8114,2.8161,2.8179,2.8213,2.8229,2.825,2.827,2.8312,2.8338,2.8352,2.8375,2.8409,2.8437,2.8443,2.8454,2.846,2.8466,2.8429,2.8425,2.8421,2.8413,2.8463,2.8463,2.8503,2.8503,2.8503]}]]